TimeCDT,TemperatureF,Dew PointF,Humidity,Sea Level PressureIn,VisibilityMPH,Wind Direction,Wind SpeedMPH,Gust SpeedMPH,PrecipitationIn,Events,Conditions,WindDirDegrees,DateUTC
12:53 AM,73.0,62.1,68,29.76,10.0,South,8.1,-,N/A,,Clear,180,2012-10-25 05:53:00
1:53 AM,72.0,62.1,71,29.77,10.0,South,8.1,-,N/A,,Clear,170,2012-10-25 06:53:00
2:53 AM,71.1,63.0,75,29.78,10.0,South,9.2,-,N/A,,Clear,170,2012-10-25 07:53:00
3:53 AM,72.0,62.1,71,29.76,10.0,South,10.4,-,N/A,,Clear,180,2012-10-25 08:53:00
4:53 AM,71.1,63.0,75,29.77,10.0,South,9.2,-,N/A,,Clear,170,2012-10-25 09:53:00
5:53 AM,71.1,63.0,75,29.77,10.0,South,10.4,-,N/A,,Scattered Clouds,170,2012-10-25 10:53:00
6:53 AM,71.1,64.0,78,29.77,10.0,South,12.7,20.7,N/A,,Scattered Clouds,190,2012-10-25 11:53:00
8:34 AM,71.6,62.6,73,29.81,10.0,SSW,11.5,21.9,N/A,,Mostly Cloudy,200,2012-10-25 13:34:00
8:53 AM,72.0,63.0,73,29.83,10.0,SSW,13.8,23.0,N/A,,Mostly Cloudy,210,2012-10-25 13:53:00
9:53 AM,73.0,64.0,73,29.86,10.0,SW,9.2,16.1,N/A,,Overcast,220,2012-10-25 14:53:00
10:09 AM,62.6,55.4,77,29.89,10.0,WNW,9.2,25.3,0.00,Rain,Light Rain,300,2012-10-25 15:09:00
10:18 AM,60.8,53.6,77,29.89,10.0,NW,10.4,24.2,0.00,Rain,Light Rain,310,2012-10-25 15:18:00
10:53 AM,55.9,46.9,72,29.96,10.0,Variable,5.8,18.4,0.00,,Overcast,0,2012-10-25 15:53:00
11:09 AM,53.6,44.6,72,29.97,10.0,NW,10.4,25.3,N/A,,Overcast,310,2012-10-25 16:09:00
11:22 AM,51.8,44.6,76,29.97,10.0,Variable,4.6,20.7,N/A,,Overcast,0,2012-10-25 16:22:00
11:53 AM,51.1,44.1,77,30.02,10.0,NW,9.2,21.9,0.00,Rain,Light Rain,320,2012-10-25 16:53:00
12:53 PM,52.0,42.1,69,30.05,10.0,NNW,11.5,20.7,0.00,,Overcast,340,2012-10-25 17:53:00
1:53 PM,52.0,39.9,63,30.06,10.0,NNW,9.2,21.9,N/A,,Overcast,330,2012-10-25 18:53:00
2:53 PM,53.1,39.0,59,30.07,10.0,NNW,12.7,25.3,N/A,,Overcast,340,2012-10-25 19:53:00
3:53 PM,52.0,37.9,59,30.10,10.0,North,10.4,18.4,N/A,,Overcast,10,2012-10-25 20:53:00
4:13 PM,51.8,37.4,58,30.09,10.0,North,10.4,21.9,N/A,,Overcast,350,2012-10-25 21:13:00
4:53 PM,53.1,37.0,55,30.12,10.0,North,9.2,23.0,N/A,,Mostly Cloudy,360,2012-10-25 21:53:00
5:53 PM,51.1,36.0,56,30.14,10.0,NNE,12.7,23.0,N/A,,Clear,20,2012-10-25 22:53:00
6:53 PM,51.1,37.0,59,30.17,10.0,North,8.1,-,N/A,,Overcast,10,2012-10-25 23:53:00
7:53 PM,51.1,36.0,56,30.20,10.0,North,12.7,24.2,N/A,,Overcast,10,2012-10-26 00:53:00
8:53 PM,50.0,36.0,59,30.22,10.0,NNE,11.5,-,N/A,,Overcast,30,2012-10-26 01:53:00
9:53 PM,48.9,35.1,59,30.23,10.0,NNE,8.1,-,N/A,,Clear,20,2012-10-26 02:53:00
10:53 PM,48.0,36.0,63,30.23,10.0,NNE,11.5,-,N/A,,Clear,20,2012-10-26 03:53:00
11:53 PM,46.9,35.1,63,30.25,10.0,NNE,9.2,-,N/A,,Clear,30,2012-10-26 04:53:00